Date,TemperatureHighF,TemperatureAvgF,TemperatureLowF,DewpointHighF,DewpointAvgF,DewpointLowF,HumidityHigh,HumidityAvg,HumidityLow,PressureMaxIn,PressureMinIn,WindSpeedMaxMPH,WindSpeedAvgMPH,GustSpeedMaxMPH,PrecipitationSumIn
2013-1-1,36.9,27.4,18.7,21.0,15.3,11.3,83,61,41,30.41,30.14,12,2,12,0.00
2013-1-2,35.9,22.9,12.9,13.1,9.8,5.7,80,59,28,30.47,30.32,8,1,11,0.00
2013-1-3,38.3,24.8,14.6,15.8,11.2,6.5,72,57,36,30.56,30.43,15,1,15,0.00
2013-1-4,34.7,21.2,10.8,12.2,5.5,0.4,71,52,29,30.58,30.40,9,2,9,0.00
2013-1-5,41.9,27.2,13.0,9.8,6.3,4.1,69,43,21,30.61,30.47,7,1,7,0.00
2013-1-6,43.7,27.6,13.1,12.8,8.3,5.2,73,46,23,30.58,30.28,8,0,8,0.00
2013-1-7,49.2,35.7,27.3,18.0,13.6,9.7,55,41,27,30.28,30.01,10,1,10,0.00
2013-1-8,50.1,35.1,23.0,17.7,13.9,9.9,64,44,20,30.34,30.02,16,3,16,0.00
2013-1-9,53.3,36.0,22.7,15.5,13.7,11.6,64,42,21,30.53,30.22,9,2,9,0.00
2013-1-10,47.7,34.6,21.6,22.9,14.3,11.4,66,45,25,30.22,29.80,11,1,11,0.00
2013-1-11,42.9,33.8,20.2,25.0,6.4,-9.6,62,33,17,29.97,29.66,20,4,20,0.00
2013-1-12,33.7,21.0,10.9,1.5,-4.2,-11.9,53,34,17,30.24,29.97,12,1,12,0.00
2013-1-13,31.7,18.1,7.2,3.7,-1.6,-4.4,61,43,24,30.35,30.18,5,1,11,0.00
2013-1-14,29.2,20.6,13.7,23.7,10.9,-0.4,87,66,46,30.33,30.15,15,1,15,0.01
2013-1-15,26.0,16.2,5.7,6.8,2.5,-0.5,81,56,35,30.68,30.33,16,2,16,0.00
2013-1-16,39.9,24.5,9.1,14.5,8.0,1.6,74,50,33,30.74,30.56,10,1,10,0.00
2013-1-17,49.5,30.8,16.9,16.7,13.8,9.8,74,52,25,30.73,30.54,6,1,6,0.00
2013-1-18,52.1,33.9,18.9,19.6,16.8,13.9,83,53,26,30.55,30.34,6,0,6,0.00
2013-1-19,53.9,36.7,24.2,19.5,17.4,11.6,70,48,19,30.48,30.34,9,1,9,0.00
2013-1-20,53.7,35.9,18.8,18.5,14.0,8.9,78,45,18,30.44,30.26,9,1,9,0.00
2013-1-21,54.7,37.2,19.3,17.9,12.8,9.7,68,39,19,30.42,30.26,11,2,11,0.00
2013-1-22,58.4,39.6,22.5,18.0,14.1,7.2,74,40,14,30.41,30.27,10,0,10,0.00
2013-1-23,59.8,39.2,22.2,14.6,11.4,5.7,66,36,12,30.46,30.31,7,1,7,0.00
2013-1-24,61.9,44.0,25.3,34.7,16.9,9.7,62,37,15,30.39,30.20,8,1,8,0.00
2013-1-25,57.9,47.8,36.0,39.1,34.7,29.4,78,61,48,30.27,30.10,6,0,6,0.00
2013-1-26,56.4,47.4,40.4,49.7,40.4,34.2,91,77,61,30.12,29.81,17,1,17,0.11
2013-1-27,60.4,48.7,40.5,40.8,37.4,31.8,88,68,36,29.95,29.82,14,2,14,0.00
2013-1-28,56.0,44.8,37.3,38.7,32.5,17.9,87,63,35,29.86,29.65,20,4,20,0.02
2013-1-29,37.2,32.3,27.0,22.4,14.3,2.1,71,48,25,30.09,29.69,22,4,22,0.00
2013-1-30,42.4,32.0,22.0,17.1,13.9,7.2,67,49,28,30.36,30.08,19,3,19,0.00
2013-1-31,53.6,37.1,21.7,24.0,19.3,15.6,80,52,23,30.44,30.30,13,1,13,0.00